Monistrol de Calders (Moianès)





Hora UTC 20:55
Temperatura 25.4 ºC
Humedad 59.0 %
Presión 1013.0 hPa
Pluja 0.0 mm
Velocidad viento 1.6 km/h
Dirección viento SSE

Datos diarios 2024-07-24



Hora UTC (invierno +1h; verano +2h)
Temperatura (ºC) Humedad (%) Presión (hPa) Velocidad viento (km/h) Precipitación (mm)
Hora UTC Aire Humedad Presión Vel. Dir. Vel. Max Dir. Intent. máx 5 min.
00:05 20.9 80.0 1017.2 1.6 ESE 1.6 0.0
00:10 20.8 81.0 1017.2 3.2 SSE 4.8 0.0
00:15 20.7 81.0 1017.2 3.2 SE 4.8 0.0
00:20 20.7 81.0 1017.1 3.2 SSE 4.8 0.0
00:25 20.6 81.0 1017.0 1.6 SSE 4.8 0.0
00:30 20.4 82.0 1017.0 3.2 SSE 4.8 0.0
00:35 20.3 81.0 1017.0 1.6 SSE 3.2 0.0
00:40 20.3 82.0 1017.0 0.0 SSE 3.2 0.0
00:45 20.3 82.0 1017.1 0.0 SSE 1.6 0.0
00:50 20.2 82.0 1017.1 1.6 SSE 1.6 0.0
00:55 20.2 82.0 1017.1 0.0 SE 3.2 0.0
01:00 20.1 82.0 1017.2 0.0 SE 3.2 0.0
01:05 20.0 82.0 1017.3 4.8 SE 4.8 0.0
01:10 19.9 82.0 1017.3 0.0 SE 4.8 0.0
01:15 19.8 82.0 1017.2 3.2 SE 4.8 0.0
01:20 19.8 82.0 1017.2 3.2 ESE 4.8 0.0
01:25 19.7 83.0 1017.2 3.2 SE 4.8 0.0
01:30 19.7 83.0 1017.2 1.6 SE 4.8 0.0
01:35 19.6 83.0 1017.2 1.6 SSE 4.8 0.0
01:40 19.6 83.0 1017.0 3.2 SSE 4.8 0.0
01:45 19.4 83.0 1017.1 3.2 SSE 4.8 0.0
01:50 19.4 84.0 1017.0 8.0 SSE 11.3 0.0
01:55 19.3 84.0 1016.9 3.2 SE 11.3 0.0
02:00 19.2 84.0 1016.9 3.2 S 8.0 0.0
02:05 19.2 84.0 1016.9 3.2 SE 9.7 0.0
02:10 19.2 84.0 1016.9 3.2 SSE 9.7 0.0
02:15 19.1 84.0 1016.8 8.0 SSE 9.7 0.0
02:20 19.1 85.0 1016.7 1.6 S 9.7 0.0
02:25 19.1 85.0 1016.6 1.6 S 8.0 0.0
02:30 18.9 85.0 1016.5 3.2 SSE 4.8 0.0
02:35 18.8 85.0 1016.4 4.8 SSE 9.7 0.0
02:40 18.7 85.0 1016.4 1.6 SE 9.7 0.0
02:45 18.7 85.0 1016.4 1.6 SSE 8.0 0.0
02:50 18.6 85.0 1016.5 3.2 SE 4.8 0.0
02:55 18.6 85.0 1016.4 3.2 S 6.4 0.0
03:00 18.4 85.0 1016.4 1.6 SSE 4.8 0.0
03:05 18.4 85.0 1016.4 3.2 SE 4.8 0.0
03:10 18.4 85.0 1016.4 4.8 SSW 6.4 0.0
03:15 18.4 86.0 1016.4 3.2 SE 8.0 0.0
03:20 18.3 86.0 1016.4 0.0 SE 8.0 0.0
03:25 18.3 86.0 1016.4 0.0 SE 3.2 0.0
03:30 18.3 86.0 1016.4 0.0 SE 3.2 0.0
03:35 18.2 86.0 1016.4 1.6 SE 1.6 0.0
03:40 18.2 86.0 1016.4 0.0 SE 1.6 0.0
03:45 18.2 86.0 1016.4 0.0 SE 1.6 0.0
03:50 18.2 86.0 1016.4 1.6 SE 1.6 0.0
03:55 18.1 86.0 1016.4 1.6 SE 4.8 0.0
04:00 18.0 86.0 1016.4 0.0 SE 4.8 0.0
04:05 18.0 86.0 1016.4 1.6 SSE 4.8 0.0
04:10 17.9 86.0 1016.4 0.0 SE 4.8 0.0
04:15 17.9 86.0 1016.4 0.0 SE 3.2 0.0
04:20 17.8 86.0 1016.5 1.6 SE 3.2 0.0
04:25 17.7 86.0 1016.5 1.6 SE 3.2 0.0
04:30 17.7 86.0 1016.6 0.0 SE 3.2 0.0
04:35 17.6 86.0 1016.5 0.0 SE 1.6 0.0
04:40 17.5 86.0 1016.5 0.0 SE 3.2 0.0
04:45 17.4 86.0 1016.6 0.0 SE 3.2 0.0
04:50 17.3 86.0 1016.6 3.2 SSE 4.8 0.0
04:55 17.3 86.0 1016.6 3.2 ESE 6.4 0.0
05:00 17.3 86.0 1016.6 3.2 SE 8.0 0.0
05:05 17.3 86.0 1016.6 1.6 SSE 6.4 0.0
05:10 17.3 86.0 1016.6 0.0 SSE 4.8 0.0
05:15 17.3 86.0 1016.6 1.6 SSE 3.2 0.0
05:20 17.2 86.0 1016.6 3.2 SSE 4.8 0.0
05:25 17.1 87.0 1016.5 3.2 SSE 8.0 0.0
05:30 17.2 87.0 1016.6 1.6 SSE 8.0 0.0
05:35 17.3 87.0 1016.6 3.2 SSE 8.0 0.0
05:40 17.4 87.0 1016.6 0.0 SSE 4.8 0.0
05:45 17.7 87.0 1016.6 1.6 SSE 3.2 0.0
05:50 17.8 87.0 1016.5 1.6 SSE 3.2 0.0
05:55 18.1 86.0 1016.5 1.6 ESE 3.2 0.0
06:00 18.3 86.0 1016.5 3.2 SE 4.8 0.0
06:05 18.7 86.0 1016.5 3.2 SE 4.8 0.0
06:10 18.9 86.0 1016.5 3.2 SE 6.4 0.0
06:15 19.2 85.0 1016.5 3.2 SSE 4.8 0.0
06:20 19.6 85.0 1016.5 1.6 SE 4.8 0.0
06:25 19.9 85.0 1016.4 3.2 SE 4.8 0.0
06:30 20.2 84.0 1016.4 1.6 SE 4.8 0.0
06:35 20.6 83.0 1016.3 1.6 SE 4.8 0.0
06:40 20.9 83.0 1016.3 1.6 ESE 3.2 0.0
06:45 21.6 82.0 1016.3 1.6 ESE 3.2 0.0
06:50 22.1 80.0 1016.3 0.0 E 3.2 0.0
06:55 22.7 78.0 1016.2 0.0 E 3.2 0.0
07:00 23.3 75.0 1016.2 0.0 E 3.2 0.0
07:05 23.8 73.0 1016.1 1.6 E 3.2 0.0
07:10 24.3 71.0 1016.1 1.6 E 3.2 0.0
07:15 24.8 68.0 1016.1 1.6 E 3.2 0.0
07:20 25.2 66.0 1016.1 0.0 E 3.2 0.0
07:25 25.5 65.0 1016.1 0.0 E 3.2 0.0
07:30 26.0 64.0 1016.0 0.0 E 3.2 0.0
07:35 26.7 61.0 1016.0 1.6 NNE 3.2 0.0
07:40 27.2 59.0 1016.0 1.6 NE 4.8 0.0
07:45 27.5 57.0 1015.8 1.6 ENE 4.8 0.0
07:50 27.9 55.0 1015.9 1.6 ENE 4.8 0.0
07:55 28.2 51.0 1015.8 3.2 ENE 3.2 0.0
08:00 28.6 48.0 1015.8 0.0 SE 4.8 0.0
08:05 28.9 45.0 1015.7 4.8 E 11.3 0.0
08:10 29.2 44.0 1015.7 12.9 SE 12.9 0.0
08:15 29.2 43.0 1015.6 4.8 S 11.3 0.0
08:20 29.3 43.0 1015.6 6.4 SSE 12.9 0.0
08:25 29.3 41.0 1015.5 6.4 SSE 9.7 0.0
08:30 29.6 38.0 1015.5 1.6 SSE 16.1 0.0
08:35 29.9 37.0 1015.6 12.9 SE 16.1 0.0
08:40 29.9 38.0 1015.5 4.8 WSW 16.1 0.0
08:45 30.3 38.0 1015.4 3.2 SE 11.3 0.0
08:50 30.4 36.0 1015.4 11.3 WSW 17.7 0.0
08:55 30.3 37.0 1015.5 8.0 SSW 17.7 0.0
09:00 30.3 35.0 1015.4 6.4 W 20.9 0.0
09:05 30.6 35.0 1015.3 12.9 SSW 20.9 0.0
09:10 30.8 35.0 1015.3 6.4 SSW 17.7 0.0
09:15 30.7 34.0 1015.3 12.9 W 17.7 0.0
09:20 30.6 35.0 1015.2 9.7 W 17.7 0.0
09:25 30.7 35.0 1015.2 3.2 NW 16.1 0.0
09:30 30.8 34.0 1015.2 9.7 W 17.7 0.0
09:35 30.8 34.0 1015.2 8.0 SSE 19.3 0.0
09:40 31.2 34.0 1015.0 4.8 SW 19.3 0.0
09:45 31.4 33.0 1015.1 19.3 SE 29.0 0.0
09:50 31.2 34.0 1015.1 1.6 SSE 29.0 0.0
09:55 31.2 33.0 1015.1 12.9 SSE 19.3 0.0
10:00 31.2 32.0 1015.1 8.0 SSE 25.7 0.0
10:05 31.2 32.0 1015.1 6.4 SSW 25.7 0.0
10:10 31.1 32.0 1015.1 9.7 SW 24.1 0.0
10:15 31.4 33.0 1015.0 4.8 SSW 24.1 0.0
10:20 31.7 32.0 1014.9 3.2 WNW 12.9 0.0
10:25 31.8 32.0 1014.9 4.8 S 14.5 0.0
10:30 31.5 33.0 1014.9 3.2 S 24.1 0.0
10:35 31.6 33.0 1014.8 6.4 S 24.1 0.0
10:40 31.7 33.0 1014.8 6.4 SE 14.5 0.0
10:45 31.7 33.0 1014.8 6.4 S 22.5 0.0
10:50 31.8 34.0 1014.7 4.8 S 22.5 0.0
10:55 31.9 33.0 1014.6 9.7 S 17.7 0.0
11:00 31.8 35.0 1014.6 19.3 SE 25.7 0.0
11:05 31.7 35.0 1014.4 3.2 E 25.7 0.0
11:10 31.8 34.0 1014.3 17.7 SSW 25.7 0.0
11:15 31.8 35.0 1014.3 3.2 SSW 20.9 0.0
11:20 32.0 35.0 1014.4 4.8 NNW 22.5 0.0
11:25 32.2 35.0 1014.3 8.0 SSE 24.1 0.0
11:30 32.2 35.0 1014.2 4.8 S 24.1 0.0
11:35 32.2 35.0 1014.2 8.0 WSW 14.5 0.0
11:40 32.4 34.0 1014.0 11.3 ESE 16.1 0.0
11:45 32.8 34.0 1014.0 12.9 W 16.1 0.0
11:50 33.2 33.0 1013.9 14.5 WNW 14.5 0.0
11:55 33.7 33.0 1013.8 1.6 SSE 16.1 0.0
12:00 34.0 32.0 1013.7 16.1 SE 17.7 0.0
12:05 33.6 32.0 1013.6 14.5 SE 17.7 0.0
12:10 33.7 32.0 1013.6 4.8 NW 17.7 0.0
12:15 34.0 31.0 1013.5 1.6 SE 12.9 0.0
12:20 34.3 31.0 1013.4 4.8 WNW 8.0 0.0
12:25 34.7 31.0 1013.4 3.2 S 9.7 0.0
12:30 34.0 36.0 1013.3 17.7 SSW 24.1 0.0
12:35 33.3 38.0 1013.3 6.4 SE 20.9 0.0
12:40 32.8 39.0 1013.1 14.5 ESE 30.6 0.0
12:45 32.8 39.0 1013.2 19.3 SSE 32.2 0.0
12:50 33.1 38.0 1013.1 16.1 SSW 32.2 0.0
12:55 32.8 37.0 1012.9 14.5 SE 30.6 0.0
13:00 32.6 38.0 1013.1 16.1 SSW 33.8 0.0
13:05 32.4 39.0 1012.9 22.5 S 37.0 0.0
13:10 32.4 40.0 1012.9 12.9 S 37.0 0.0
13:15 32.6 41.0 1013.0 17.7 SW 27.4 0.0
13:20 32.3 43.0 1013.0 6.4 SW 30.6 0.0
13:25 32.3 44.0 1012.9 14.5 SE 27.4 0.0
13:30 32.3 44.0 1012.9 20.9 S 30.6 0.0
13:35 32.3 45.0 1012.7 24.1 SE 30.6 0.0
13:40 32.3 45.0 1012.7 17.7 SSE 33.8 0.0
13:45 32.1 45.0 1012.7 12.9 S 30.6 0.0
13:50 32.1 46.0 1012.7 12.9 SE 30.6 0.0
13:55 32.3 47.0 1012.7 22.5 SSE 30.6 0.0
14:00 31.6 48.0 1012.6 20.9 ESE 35.4 0.0
14:05 31.7 48.0 1012.4 17.7 ESE 35.4 0.0
14:10 31.6 48.0 1012.5 22.5 S 35.4 0.0
14:15 31.7 47.0 1012.4 11.3 SE 32.2 0.0
14:20 31.5 48.0 1012.4 19.3 ESE 33.8 0.0
14:25 31.4 48.0 1012.4 17.7 S 33.8 0.0
14:30 31.4 49.0 1012.5 14.5 SSE 32.2 0.0
14:35 31.4 48.0 1012.3 20.9 E 32.2 0.0
14:40 31.2 47.0 1012.3 3.2 SE 35.4 0.0
14:45 31.6 44.0 1012.2 19.3 SE 35.4 0.0
14:50 31.7 44.0 1012.2 14.5 S 25.7 0.0
14:55 31.9 43.0 1012.2 9.7 SSE 27.4 0.0
15:00 32.1 42.0 1012.2 12.9 S 30.6 0.0
15:05 31.9 43.0 1012.1 17.7 E 33.8 0.0
15:10 31.9 41.0 1012.1 11.3 S 33.8 0.0
15:15 32.0 40.0 1012.0 11.3 S 25.7 0.0
15:20 31.9 40.0 1012.0 12.9 SE 30.6 0.0
15:25 31.8 41.0 1012.1 20.9 S 32.2 0.0
15:30 31.7 41.0 1011.9 12.9 S 32.2 0.0
15:35 31.6 40.0 1011.9 14.5 S 30.6 0.0
15:40 31.6 39.0 1011.9 19.3 SSE 30.6 0.0
15:45 31.3 38.0 1011.9 22.5 S 35.4 0.0
15:50 31.3 39.0 1011.9 8.0 SSE 35.4 0.0
15:55 31.4 38.0 1011.7 9.7 S 30.6 0.0
16:00 31.4 38.0 1011.7 19.3 SSE 38.6 0.0
16:05 31.1 38.0 1011.7 20.9 SSW 38.6 0.0
16:10 31.1 38.0 1011.7 16.1 SE 30.6 0.0
16:15 31.1 39.0 1011.7 6.4 S 30.6 0.0
16:20 31.1 39.0 1011.7 6.4 SSE 24.1 0.0
16:25 31.1 38.0 1011.6 19.3 S 25.7 0.0
16:30 30.8 40.0 1011.7 12.9 SE 29.0 0.0
16:35 30.8 40.0 1011.5 14.5 E 32.2 0.0
16:40 30.8 41.0 1011.7 6.4 ESE 20.9 0.0
16:45 30.4 44.0 1011.6 16.1 E 30.6 0.0
16:50 30.1 46.0 1011.6 16.1 E 35.4 0.0
16:55 29.9 46.0 1011.7 22.5 E 35.4 0.0
17:00 29.7 46.0 1011.6 14.5 E 30.6 0.0
17:05 29.7 46.0 1011.8 4.8 S 30.6 0.0
17:10 29.7 45.0 1011.8 12.9 ESE 30.6 0.0
17:15 29.6 46.0 1011.9 3.2 S 30.6 0.0
17:20 29.5 45.0 1011.9 24.1 ESE 30.6 0.0
17:25 29.3 44.0 1012.0 16.1 SE 30.6 0.0
17:30 29.4 43.0 1011.9 6.4 SSW 27.4 0.0
17:35 29.4 43.0 1011.9 8.0 E 27.4 0.0
17:40 29.6 42.0 1012.0 9.7 E 22.5 0.0
17:45 29.6 41.0 1012.0 16.1 S 24.1 0.0
17:50 29.4 41.0 1012.0 6.4 SE 19.3 0.0
17:55 29.3 41.0 1012.0 11.3 E 19.3 0.0
18:00 29.2 41.0 1012.0 9.7 SE 22.5 0.0
18:05 29.1 41.0 1012.1 11.3 ESE 22.5 0.0
18:10 29.0 41.0 1012.1 9.7 SSE 17.7 0.0
18:15 28.8 42.0 1012.2 6.4 SSE 17.7 0.0
18:20 28.8 42.0 1012.1 3.2 ESE 16.1 0.0
18:25 28.7 42.0 1012.2 3.2 ESE 16.1 0.0
18:30 28.6 43.0 1012.3 6.4 S 14.5 0.0
18:35 28.4 44.0 1012.4 14.5 SE 19.3 0.0
18:40 28.2 45.0 1012.5 6.4 ESE 19.3 0.0
18:45 28.0 46.0 1012.5 12.9 SSE 16.1 0.0
18:50 27.8 47.0 1012.4 9.7 E 16.1 0.0
18:55 27.7 48.0 1012.5 6.4 E 14.5 0.0
19:00 27.6 49.0 1012.5 11.3 ESE 19.3 0.0
19:05 27.4 51.0 1012.6 6.4 S 19.3 0.0
19:10 27.2 52.0 1012.6 14.5 ESE 16.1 0.0
19:15 27.0 53.0 1012.6 4.8 ESE 20.9 0.0
19:20 26.8 54.0 1012.6 11.3 ESE 20.9 0.0
19:25 26.7 54.0 1012.6 6.4 ENE 14.5 0.0
19:30 26.7 54.0 1012.7 14.5 ESE 16.1 0.0
19:35 26.6 54.0 1012.7 9.7 E 17.7 0.0
19:40 26.4 54.0 1012.7 11.3 ESE 17.7 0.0
19:45 26.4 54.0 1012.7 12.9 SE 16.1 0.0
19:50 26.3 54.0 1012.7 6.4 ESE 16.1 0.0
19:55 26.2 54.0 1012.8 14.5 E 14.5 0.0
20:00 26.2 54.0 1012.7 14.5 ESE 14.5 0.0
20:05 26.1 55.0 1012.8 3.2 SE 14.5 0.0
20:10 26.0 55.0 1012.8 6.4 E 12.9 0.0
20:15 25.9 56.0 1012.9 9.7 ESE 16.1 0.0
20:20 25.9 56.0 1012.9 9.7 ESE 16.1 0.0
20:25 25.8 57.0 1013.0 6.4 E 14.5 0.0
20:30 25.8 57.0 1013.0 1.6 ESE 12.9 0.0
20:35 25.7 58.0 1013.0 9.7 ESE 11.3 0.0
20:40 25.6 58.0 1012.9 3.2 E 11.3 0.0
20:45 25.6 59.0 1013.0 1.6 E 8.0 0.0
20:50 25.4 59.0 1013.0 0.0 SSW 4.8 0.0
20:55 25.4 59.0 1013.0 1.6 SSE 9.7 0.0
Máxima 34.7 87.0 1017.3 24.1 ESE 38.6 0.0
Mínima 17.1 31.0 1011.5
Total 0.0